Regional Weather Roundup
Issued by NWS

Home | Current Version | Previous Version | Graphics & Text | Print | Product List | Glossary On
Versions: 1 2 3 4 5 6 7 8 9 10 11 12 13 14 15 16 17 18 19 20 21 22 23 24 25 26 27 28 29 30 31 32 33 34 35 36 37 38 39 40 41 42 43 44 45 46 47 48 49 50
000
ASUS43 KLSX 101259
RWRMO

WEATHER SUMMARY FOR MISSOURI
NATIONAL WEATHER SERVICE SPRINGFIELD MO
800 AM CDT THU JUL 10 2014

NOTE: "FAIR" INDICATES FEW OR NO CLOUDS BELOW 12,000 FEET WITH NO
       SIGNIFICANT WEATHER AND/OR OBSTRUCTIONS TO VISIBILITY.
       CURRENT SKY AND/OR WEATHER CONDITIONS ARE NOT AVAILABLE FOR
       CHILLICOTHE AND FARMINGTON.

MOZ001>031-035>038-043-044-053-054-101400-
...NORTHERN AND WESTERN MISSOURI...

CITY           SKY/WX    TMP DP  RH WIND       PRES   REMARKS
KANSAS CTY INT CLOUDY    70  60  70 SE9       30.08R
KANSAS C DTWN  CLOUDY    72  60  66 SE6       30.08R
LEE`S SUMMIT   CLOUDY    68  59  73 SE8       30.10R
ST JOSEPH      PTSUNNY   70  61  73 S3        30.08R
CHILLICOTHE      N/A     71  60  68 SE6       30.12R
KIRKSVILLE     SUNNY     67  61  81 S5        30.15R

$$
MOZ066>068-077>081-088>096-101>105-101400-
...SOUTHWEST MISSOURI...

CITY           SKY/WX    TMP DP  RH WIND       PRES   REMARKS
SPRINGFIELD    CLOUDY    69  61  75 SE6       30.11R
JOPLIN         CLOUDY    68  61  78 NE3       30.10R

$$
MOZ032>034-039>042-045>050-055>058-069>072-101400-
...CENTRAL MISSOURI...

CITY           SKY/WX    TMP DP  RH WIND       PRES   REMARKS
COLUMBIA       SUNNY     69  60  73 E8        30.13S
JEFFERSON CITY SUNNY     65  62  90 SE3       30.13R
ROLLA            N/A    N/A N/A N/A MISG      30.13R
SEDALIA        CLOUDY    68  61  78 SE7       30.12S
OSAGE BEACH    PTSUNNY   64  59  82 CALM      30.13R

$$
MOZ051-052-059>065-101400-
...EAST CENTRAL MISSOURI...

CITY           SKY/WX    TMP DP  RH WIND       PRES   REMARKS
ST LOUIS INTL  MOSUNNY   71  59  65 CALM      30.14R
SPIRIT OF STL  SUNNY     66  63  90 CALM      30.13R
ST CHARLES     SUNNY     69  59  70 E6        30.13R

$$
MOZ072>076-082>087-097>100-106>115-101400-
...SOUTH CENTRAL AND SOUTHEAST MISSOURI...

CITY           SKY/WX    TMP DP  RH WIND       PRES   REMARKS
CAPE GIRARDEAU SUNNY     74  62  66 NE7       30.09R
FARMINGTON     SUNNY     64  61  88 CALM      30.15R
POPLAR BLUFF   SUNNY     71  62  73 NE5       30.08R
WEST PLAINS    MOSUNNY   67  61  81 NE3       30.14R

$$


USA.gov is the U.S. government's official web portal to all federal, state and local government web resources and services.